[[{"header":{"parameterUnit":"m.s-1","parameterCategory":1,"la1":30.2991,"la2":30.254,"lo1":-89.0895,"lo2":-89.0444,"dy":0.0017,"dx":0.0017,"nx":28,"ny":28,"refTime":"2025-06-17T21:00:00:Z","depth":0,"parameterNumber":2,"parameterNumberName":"U-component_of_WINDS"},"data":[0,0,0,0,0,0,0,0,0,0,0,0,0,0,0,0,0,0,0,0,0,0,0,0,0,0,0,0,0,0,0,0,0,0,0,0,0,0,0,0,0,0,0,0,0,0,0,0,0,0,0,0,0,0,0,0,0,0,2.7436,2.7436,0,2.7434,2.7434,2.7434,2.7378,2.7377,2.7375,2.7374,2.7371,2.7373,2.7374,0,0,0,0,0,0,0,0,0,0,0,0,0,2.7386,2.7387,2.7436,2.7436,2.7436,2.7434,2.7434,2.7434,2.7379,2.7377,2.7375,2.7373,2.7371,2.7372,2.7374,0,0,0,0,0,0,0,0,0,0,0,0,0,2.7398,2.7388,2.7436,2.7408,2.7405,2.7434,2.7434,2.7434,2.7379,2.7377,2.7375,2.7373,2.737,2.7372,2.7374,2.7429,0,0,2.738,2.7381,0,0,0,0,0,0,0,0,2.7398,2.74,2.7412,2.741,2.7407,2.7404,2.7416,2.7433,2.738,2.7389,2.7374,2.7372,2.7384,2.7385,2.7389,2.7429,2.7429,2.738,2.7381,2.7382,2.7383,0,0,0,0,0,0,0,2.7397,2.74,2.7435,2.7412,2.7409,2.7394,2.7393,2.7419,2.7399,2.7388,2.7384,2.7385,2.7382,2.7387,2.7389,2.7429,2.738,2.7382,2.7383,2.7384,2.751,2.7512,0,0,0,0,0,0,2.74,2.74,2.7435,2.7435,2.7397,2.7397,2.7396,2.7407,2.7398,2.7395,2.7386,2.7382,2.7385,2.7386,2.7388,2.7449,2.7382,2.7384,2.7385,2.7508,2.751,2.7513,0,0,0,0,0,0,2.74,2.7404,2.7435,2.7416,2.7419,2.74,2.7413,2.7408,2.7414,2.7397,2.7393,2.7396,2.7383,2.7386,2.7419,2.7448,2.7385,2.7386,2.7505,2.7508,2.7511,2.7573,0,0,0,0,0,0,2.7398,2.7404,2.7426,2.7417,2.742,2.7467,2.7415,2.741,2.7417,2.7411,2.7405,2.7401,2.7382,2.7416,2.7421,2.745,2.7388,2.7502,2.7507,2.751,2.7568,2.7578,2.7586,0,0,0,0,0,2.7397,2.7444,2.7427,2.7432,2.7447,2.7469,2.747,2.7448,2.742,2.7441,2.7429,2.7402,2.7445,2.742,2.7425,2.7455,2.75,2.7505,2.751,2.7564,2.7576,2.7586,0,0,0,0,0,0,2.7457,2.7442,2.7424,2.747,2.7471,2.7459,2.7485,2.7462,2.747,2.7464,2.7435,2.7434,2.7471,2.7466,2.7439,2.7505,2.7467,2.7473,2.7507,2.7518,2.7527,2.7526,2.739,0,0,0,0,0,2.7476,2.7495,2.7481,2.7523,2.7524,2.7505,2.7513,2.7495,2.7495,2.7495,2.7487,2.7487,2.7499,2.7509,2.7521,2.7568,2.7563,2.759,2.76,2.7607,2.7612,2.7632,2.7643,2.7529,2.7529,2.7529,0,0,2.7515,2.7509,2.7523,2.7535,2.7534,2.7552,2.7506,2.7529,2.7541,2.7498,2.7528,2.7522,2.752,2.7559,2.7576,2.7557,2.7643,2.7613,2.762,2.762,2.7639,2.765,2.7659,2.7532,2.7532,2.7531,0,0,2.7594,2.7594,2.7626,2.7625,2.7623,2.761,2.7618,2.7609,2.7603,2.7632,2.7599,2.7614,2.7639,2.7637,2.764,2.7716,2.7689,2.772,2.7767,2.7787,2.7796,2.7804,2.7828,2.7837,2.7726,2.7726,2.7726,0,2.7642,2.767,2.7646,2.767,2.7674,2.7636,2.7667,2.7668,2.767,2.7673,2.7652,2.7679,2.7675,2.7712,2.773,2.7735,2.774,2.772,2.7797,2.7805,2.7811,2.7834,2.7843,2.7729,2.7729,2.7729,2.7728,0,2.7727,2.7747,2.7774,2.7776,2.7784,2.7812,2.7789,2.78,2.7781,2.7769,2.7798,2.7792,2.7799,2.7807,2.779,2.784,2.7828,2.7803,2.7763,2.7826,2.7846,2.7855,2.7734,2.7733,2.7732,2.7731,0,0,2.7845,2.7831,2.7841,2.784,2.7834,2.7848,2.7873,2.788,2.7888,2.7891,2.7909,2.7929,2.7905,2.7908,2.7889,2.7908,2.7963,2.7879,2.7879,2.7892,2.8015,2.8032,2.8042,2.7947,2.7948,2.795,2.8014,0,2.7919,2.7961,2.7938,2.7982,2.7998,2.7961,2.7982,2.798,2.7969,2.7979,2.7967,2.798,2.7949,2.7949,2.7966,2.7953,2.7987,2.7949,2.796,2.7961,2.7959,2.8053,2.8072,2.8133,2.8022,2.8023,2.8024,0,2.8011,2.8016,2.8061,2.8049,2.8055,2.8074,2.8077,2.8089,2.8085,2.8075,2.8077,2.8053,2.8074,2.8037,2.8065,2.8039,2.8042,2.8036,2.8038,2.8036,2.7995,2.8051,2.8152,2.816,2.8037,2.8036,2.8035,0,2.8087,2.8106,2.8134,2.8135,2.8122,2.8136,2.8131,2.8125,2.813,2.8132,2.8134,2.814,2.8142,2.8146,2.8124,2.8099,2.8152,2.8114,2.8143,2.8143,2.8154,2.8153,2.8254,2.8161,2.8161,2.8161,2.8161,0,2.817,2.8199,2.8167,2.8185,2.8214,2.8188,2.8217,2.8209,2.8203,2.8216,2.8185,2.8198,2.8169,2.8179,2.8161,2.8184,2.8187,2.8177,2.8172,2.8179,2.8179,2.8178,2.8172,2.8163,2.8163,2.8162,2.8162,0,2.826,2.8241,2.8268,2.8254,2.8251,2.8273,2.8259,2.8273,2.826,2.8277,2.828,2.8258,2.8267,2.8246,2.8252,2.824,2.8272,2.8262,2.8273,2.8269,2.8297,2.8294,2.8399,2.841,2.8314,2.8315,2.8315,0,2.8313,2.8333,2.832,2.8327,2.8323,2.8335,2.8339,2.8313,2.8318,2.8313,2.8327,2.8334,2.8338,2.8354,2.8338,2.8342,2.8329,2.8366,2.833,2.8334,2.8326,2.8323,2.8324,2.8373,2.8374,2.8375,2.8376,0,2.8407,2.8396,2.8403,2.8406,2.8412,2.8413,2.8413,2.842,2.8391,2.8399,2.8407,2.841,2.8416,2.8422,2.8422,2.8415,2.839,2.8387,2.8393,2.8399,2.8403,2.8398,2.829,2.8385,2.8384,2.8383,2.8383,2.8382,2.8478,2.8493,2.8485,2.8493,2.8489,2.8488,2.85,2.8487,2.8494,2.8496,2.8481,2.8492,2.8484,2.8481,2.8477,2.8485,2.8468,2.8478,2.8479,2.8481,2.8484,2.8405,2.8485,2.8485,2.8484,2.8484,2.8484,0,2.8567,2.856,2.8568,2.8566,2.8572,2.8548,2.8545,2.8551,2.8562,2.8557,2.856,2.8569,2.8574,2.8558,2.856,2.8569,2.8557,2.857,2.8567,2.8565,2.8501,2.8494,2.8579,2.8579,2.8579,2.8579,2.8579,2.8579,2.8614,2.8637,2.8624,2.8644,2.8636,2.8647,2.8647,2.8645,2.864,2.8651,2.8655,2.8644,2.8634,2.8635,2.8637,2.8632,2.8633,2.865,2.864,2.858,2.8571,2.8562,2.8555,2.8651,2.8651,2.8703,2.8704,2.8704]},{"header":{"parameterUnit":"m.s-1","parameterCategory":1,"la1":30.2991,"la2":30.254,"lo1":-89.0895,"lo2":-89.0444,"dy":0.0017,"dx":0.0017,"nx":28,"ny":28,"refTime":"2025-06-17T21:00:00:Z","depth":0,"parameterNumber":3,"parameterNumberName":"V-component_of_WINDS"},"data":[0,0,0,0,0,0,0,0,0,0,0,0,0,0,0,0,0,0,0,0,0,0,0,0,0,0,0,0,0,0,0,0,0,0,0,0,0,0,0,0,0,0,0,0,0,0,0,0,0,0,0,0,0,0,0,0,0,0,4.6961,4.6962,0,4.7067,4.7069,4.707,4.7039,4.7036,4.7034,4.7032,4.7136,4.7141,4.7146,0,0,0,0,0,0,0,0,0,0,0,0,0,4.6723,4.6728,4.6961,4.6962,4.6964,4.7067,4.7069,4.707,4.7039,4.7036,4.7034,4.7031,4.7135,4.714,4.7146,0,0,0,0,0,0,0,0,0,0,0,0,0,4.6828,4.6729,4.6961,4.6961,4.6962,4.7067,4.7069,4.707,4.704,4.7036,4.7033,4.703,4.7133,4.714,4.7147,4.7257,0,0,4.7169,4.7172,0,0,0,0,0,0,0,0,4.6822,4.6836,4.6959,4.6961,4.6962,4.7037,4.7023,4.7133,4.704,4.701,4.7032,4.7028,4.7105,4.7114,4.7142,4.7262,4.7266,4.7169,4.7174,4.7177,4.7179,0,0,0,0,0,0,0,4.6815,4.6832,4.7003,4.6961,4.6963,4.6953,4.6964,4.7044,4.7074,4.7012,4.701,4.7024,4.7105,4.7135,4.7144,4.7268,4.7169,4.7176,4.718,4.7183,4.7479,4.7483,0,0,0,0,0,0,4.6807,4.6826,4.6999,4.7006,4.6883,4.696,4.6972,4.7016,4.7074,4.7079,4.7026,4.7022,4.7124,4.7135,4.7147,4.7277,4.7177,4.7184,4.7188,4.7476,4.748,4.7484,0,0,0,0,0,0,4.6802,4.6823,4.6995,4.6915,4.6937,4.6967,4.7016,4.702,4.7049,4.7084,4.7089,4.7051,4.7122,4.7137,4.7229,4.7281,4.7187,4.7193,4.7472,4.7477,4.7482,4.754,0,0,0,0,0,0,4.6796,4.6821,4.6866,4.6917,4.6941,4.7078,4.702,4.7024,4.7062,4.7057,4.7109,4.7114,4.712,4.7219,4.7236,4.7289,4.7199,4.7467,4.7474,4.748,4.7534,4.7547,4.7558,0,0,0,0,0,4.6787,4.6878,4.6868,4.6889,4.6997,4.7081,4.7095,4.7102,4.7067,4.711,4.7131,4.7112,4.7272,4.7228,4.7248,4.7304,4.7464,4.7472,4.748,4.7529,4.7545,4.7558,0,0,0,0,0,0,4.6831,4.6884,4.6874,4.6985,4.7029,4.7076,4.7131,4.7119,4.7173,4.7166,4.717,4.7182,4.7276,4.7299,4.7249,4.7411,4.7362,4.7375,4.7393,4.7408,4.742,4.7412,4.7205,0,0,0,0,0,4.6853,4.6919,4.6961,4.7054,4.7077,4.71,4.7137,4.7138,4.7183,4.7201,4.723,4.7273,4.7332,4.7372,4.7429,4.7537,4.7546,4.7585,4.7597,4.7606,4.7617,4.7672,4.7689,4.751,4.751,4.751,0,0,4.69,4.6937,4.6979,4.7064,4.7098,4.7163,4.7116,4.7188,4.7235,4.7212,4.73,4.7323,4.7371,4.7471,4.7516,4.7493,4.7668,4.7617,4.7624,4.7629,4.7682,4.7699,4.7714,4.7515,4.7515,4.7514,0,0,4.7019,4.7055,4.7135,4.717,4.7223,4.7237,4.7256,4.7305,4.7319,4.7408,4.7391,4.7446,4.755,4.7584,4.7614,4.7742,4.7725,4.7761,4.7824,4.7878,4.7892,4.7904,4.7947,4.7963,4.7771,4.7771,4.7771,0,4.707,4.717,4.7177,4.725,4.7286,4.7269,4.7348,4.7381,4.7449,4.7473,4.7446,4.7574,4.7605,4.7711,4.7742,4.7768,4.7787,4.7755,4.789,4.7902,4.7914,4.7955,4.7971,4.7775,4.7774,4.7774,4.7774,0,4.7228,4.7298,4.7355,4.7422,4.7465,4.7541,4.7557,4.7599,4.7596,4.7612,4.7701,4.7737,4.78,4.7825,4.7823,4.793,4.7914,4.7888,4.7839,4.7935,4.7973,4.7989,4.778,4.7779,4.7778,4.7777,0,0,4.7379,4.7447,4.7468,4.7497,4.7552,4.7605,4.7678,4.774,4.7775,4.7821,4.7881,4.7967,4.7943,4.7978,4.7979,4.8027,4.8122,4.7995,4.7996,4.8016,4.8239,4.8256,4.8275,4.8112,4.8115,4.8117,4.8234,0,4.75,4.7631,4.7638,4.7756,4.7817,4.78,4.7863,4.7903,4.7919,4.7972,4.7989,4.8049,4.8015,4.8035,4.8082,4.8101,4.8167,4.8093,4.8164,4.8167,4.8151,4.8295,4.8315,4.8424,4.8249,4.8252,4.8254,0,4.766,4.7712,4.7836,4.788,4.7906,4.7964,4.8019,4.8071,4.8114,4.8122,4.816,4.8153,4.8224,4.8174,4.827,4.822,4.8249,4.8262,4.8267,4.8272,4.8215,4.8303,4.8459,4.8474,4.8278,4.8276,4.8274,0,4.7754,4.7855,4.7942,4.7967,4.8021,4.8061,4.8085,4.8125,4.8161,4.8209,4.8231,4.8287,4.8317,4.8359,4.8366,4.8328,4.8461,4.8412,4.8468,4.8467,4.8496,4.8494,4.8657,4.8518,4.8517,4.8517,4.8517,0,4.7889,4.7965,4.7984,4.8038,4.8121,4.8127,4.8208,4.8229,4.8264,4.8318,4.8306,4.8357,4.8364,4.8416,4.8422,4.8499,4.8513,4.8519,4.852,4.852,4.8519,4.8538,4.853,4.8521,4.852,4.852,4.8519,0,4.8008,4.8025,4.8117,4.8161,4.8173,4.8232,4.8268,4.8317,4.8331,4.84,4.8416,4.8438,4.8498,4.8509,4.858,4.8584,4.8675,4.8669,4.8661,4.866,4.8714,4.8708,4.8894,4.8918,4.8765,4.8766,4.8768,0,4.8092,4.815,4.8199,4.8235,4.8262,4.832,4.8357,4.8364,4.8401,4.8453,4.8495,4.8554,4.8601,4.8697,4.8718,4.8771,4.8764,4.8826,4.8772,4.8769,4.8762,4.8758,4.8763,4.8836,4.8837,4.8839,4.884,0,4.8239,4.8243,4.8298,4.8354,4.8398,4.8442,4.8484,4.8514,4.8526,4.8568,4.863,4.8667,4.8739,4.8796,4.8848,4.887,4.8856,4.8856,4.8872,4.8872,4.8864,4.8866,4.8687,4.8852,4.8851,4.885,4.8849,4.8849,4.8341,4.8391,4.8433,4.8492,4.8524,4.8563,4.8611,4.8631,4.8683,4.8743,4.8743,4.8809,4.8847,4.8916,4.8941,4.8991,4.8971,4.8994,4.9,4.9005,4.9009,4.8857,4.9001,4.9,4.9,4.9,4.9,0,4.8485,4.8511,4.8566,4.8625,4.8671,4.8655,4.87,4.8738,4.8798,4.8835,4.8881,4.895,4.9005,4.903,4.9083,4.9118,4.9113,4.9132,4.9128,4.9133,4.9025,4.9005,4.9135,4.9135,4.9135,4.9135,4.9135,4.9135,4.8565,4.8647,4.8657,4.8753,4.8777,4.8844,4.887,4.8904,4.8934,4.9012,4.9058,4.9074,4.9105,4.916,4.9208,4.9213,4.9232,4.9254,4.9256,4.9155,4.9141,4.9128,4.9109,4.9259,4.9259,4.936,4.9361,4.9362]}]]